User: anonymous   Login
Location: Allentsteig
(48.6833°N, 15.3167°E)
Time: 17:33:53
(UTC+00:00)
Language:

USA 238 DEB - Orbit

View from above orbital plane
View from above orbital plane
View from above satellite
View from above satellite

Ground track
Ground track

The orbit data is extracted from the following two-line orbital elements,

1 38773U 12048P   21108.83062819 0.00000010  00000-0  16982-4 0    06
2 38773  63.4422 333.7754 0147811 359.6342   0.3658 13.40821972    06
Epoch (UTC): 18 April 2021 19:56:06
Eccentricity: 0.0147811
inclination: 63.4422°
perigee height: 995 km
apogee height: 1217 km
right ascension of ascending node: 333.7754°
argument of perigee: 359.6342°
revolutions per day: 13.40821972
mean anomaly at epoch: 0.3658°
orbit number at epoch: 0

The dashed part of the orbit path shows where the satellite is in the earth's shadow,  

DLR